Regional Weather Roundup
Issued by NWS

Home | Current Version | Previous Version | Text Only | Print | Product List | Glossary On
Versions: 1 2 3 4 5 6 7 8 9 10 11 12 13 14 15 16 17 18 19 20 21 22 23 24 25 26 27 28 29 30 31 32 33 34 35 36 37 38 39 40 41 42 43 44 45 46 47 48 49 50
000
ASUS44 KBMX 200010
RWRAL

ALABAMA REGIONAL WEATHER ROUNDUP
NATIONAL WEATHER SERVICE BIRMINGHAM AL
700 PM CDT FRI SEP 19 2014

NOTE: "FAIR" INDICATES FEW OR NO CLOUDS BELOW 12,000 FEET
WITH NO SIGNIFICANT WEATHER AND/OR OBSTRUCTIONS TO VISIBILITY.

THE REMARK "TC" DENOTES TEMPERATURE IN DEGREES CELSIUS.

ALZ001>011-014-016>018-020-200100-
NORTH ALABAMA

CITY           SKY/WX    TMP DP  RH WIND       PRES   REMARKS
MUSCLE SHOALS  CLEAR     79  67  66 CALM      30.01S
6HR MIN TEMP:  79; 6HR MAX TEMP:  88;

HUNTSVILLE     MOCLDY    80  65  59 SE10      30.02R
6HR MIN TEMP:  80; 6HR MAX TEMP:  89;

DECATUR        PTCLDY    80  66  62 SE8       30.02R
6HR MIN TEMP:  80; 6HR MAX TEMP:  90; 6HR PCP: TRACE;

HALEYVILLE     FAIR      77  69  76 CALM      30.05R
6HR MIN TEMP:  77; 6HR MAX TEMP:  89;

GADSDEN        CLEAR     73  66  78 CALM      30.04R
6HR MIN TEMP:  72; 6HR MAX TEMP:  86; 6HR PCP:  0.28;

$$

ALZ012-013-022-023-030>036-040>044-200100-
WEST CENTRAL ALABAMA

CITY           SKY/WX    TMP DP  RH WIND       PRES   REMARKS
TUSCALOOSA     PTCLDY    82  65  56 E7        29.97S
6HR MIN TEMP:  82; 6HR MAX TEMP:  92; 6HR PCP: TRACE;

$$

ALZ015-024>027-033>036-040>044-200100-
CENTRAL ALABAMA

CITY           SKY/WX    TMP DP  RH WIND       PRES   REMARKS
BIRMINGHAM     PTCLDY    78  64  61 E5        30.04R
6HR MIN TEMP:  78; 6HR MAX TEMP:  88;

MONTGOMERY     LGT RAIN  76  65  68 S15G24    29.99R
6HR MIN TEMP:  76; 6HR MAX TEMP:  93; 6HR PCP: TRACE;

SHELBY CO ARPT CLEAR     79  65  62 CALM      30.02R
6HR MIN TEMP:  79; 6HR MAX TEMP:  89;

MAXWELL AFB    PTCLDY    85  64  50 SE7       29.98R
6HR MIN TEMP:  85; 6HR MAX TEMP:  92;

GREENVILLE     FAIR      77  66  68 E7        29.99R
6HR MIN TEMP:  77; 6HR MAX TEMP:  92; 6HR PCP: TRACE;

$$

ALZ019-021-028-029-037-038-045>048-200100-
EAST CENTRAL ALABAMA

CITY           SKY/WX    TMP DP  RH WIND       PRES   REMARKS
ANNISTON       CLEAR     77  67  71 CALM      30.04R
6HR MIN TEMP:  73; 6HR MAX TEMP:  82; 6HR PCP:  0.06;

ALEXANDER CITY CLEAR     76  68  77 NE3       30.03R
6HR MIN TEMP:  76; 6HR MAX TEMP:  89;

AUBURN         PTCLDY    73  61  64 SE6       30.07S
6HR MIN TEMP:  73; 6HR MAX TEMP:  86;

$$

ALZ051>064-200100-
SOUTHWEST ALABAMA

CITY           SKY/WX    TMP DP  RH WIND       PRES   REMARKS
MOBILE         PTCLDY    79  72  79 SE6       29.96R
6HR MIN TEMP:  79; 6HR MAX TEMP:  87;

BROOKLEY FIELD PTCLDY    81  70  69 SE9       29.96S
6HR MIN TEMP:  81; 6HR MAX TEMP:  87;

EVERGREEN      PTCLDY    73  70  90 W3        29.97R
6HR MIN TEMP:  73; 6HR MAX TEMP:  92; 6HR PCP:  0.08;

$$

ALZ049-050-065>069-200100-
SOUTHEAST ALABAMA

CITY           SKY/WX    TMP DP  RH WIND       PRES   REMARKS
DOTHAN         MOCLDY    74  68  81 NE6       30.02R
6HR MIN TEMP:  74; 6HR MAX TEMP:  88;

OZARK          MOCLDY    76  65  70 NE10      29.98S
6HR MIN TEMP:  76; 6HR MAX TEMP:  91;

TROY           MOCLDY    73  69  87 CALM      30.01R
6HR MIN TEMP:  72; 6HR MAX TEMP:  92; 6HR PCP:  0.29;

EUFAULA        FAIR      77  68  73 E3        30.00R
6HR MIN TEMP:  72; 6HR MAX TEMP:  92; 6HR PCP:  0.02;

$$



USA.gov is the U.S. government's official web portal to all federal, state and local government web resources and services.